Weather in Malbun

Liechtenstein     47°06′04″N   9°36′35″E
temp.,
°C
wind,
m/s
gust,
m/s
humid.,
%
clouds,
%
prec.,
mm/h
press.,
hPa
HPBL,
m
8 may, sat
sat823:00−3s2294100 0.0 102435
02:00−3s3394100 0.0 102540
05:00−4s349282 0.0 102573
08:000s358047 0.0 1023174
11:00+8ssw235049 0.0 1018623
14:00+13sw123998 0.0 10161409
17:00+13ssw1244100 0.0 10151482
20:00+8sse2276100 0.0 101615
9 may, sun
sun923:00+4s4586100 0.0 101970
02:00+3s468918 0.0 102087
05:00+2s4691100 0.0 101995
08:00+7s567740 0.0 1016204
11:00+14s565147 0.0 1013799
14:00+17s5641100 0.0 10111327
17:00+17s574395 0.0 10101451
20:00+11s5869100 0.0 1012278
10 may, mon
mon1023:00+7s69867 0.0 1014196
02:00+6s698986 0.0 1013223
05:00+6s710884 0.0 1013216
08:00+10s697531 0.0 1011498
11:00+15s795569 0.0 10091009
14:00+14ssw6864100 0.3 1011990
17:00+14s5759100 0.1 10101120
20:00+9s578471 0.4 1010352
11 may, tue
tue1123:00+6s589517 1.1 1012286
02:00+6s239575 1.8 101283
05:00+6s2396100 2.5 1011127
08:00+7ssw2392100 4.3 1009261
11:00+9ssw4586100 0.9 1007589
14:00+8ssw4588100 3.0 1008553
17:00+8ssw348485 1.0 1007623
20:00+7sw2289100 1.6 1008226
12 may, wed
wed1223:00+5wnw2297100 1.1 1009205
02:00+3nw3499100 6.7 1011469
05:00+1nnw23100100 4.8 1013178
08:00+1nnw34100100 9.2 1014158
11:00+2nnw34100100 2.8 1014275
14:00+2nnw33100100 4.6 1014337
17:00+1nnw23100100 3.4 1015140
20:00+1n12100100 5.9 1015172